AirNav   Air Wisconsin Up To $57,000 Bonus
 
 268 users online  

6I4 Boone County Airport
Lebanon, Indiana, USA

GOING TO LEBANON?


FAA INFORMATION EFFECTIVE 07 NOVEMBER 2019

Location

FAA Identifier: 6I4
Lat/Long: 40-00-26.1490N 086-26-25.9990W
40-00.435817N 086-26.433317W
40.0072636,-86.4405553
(estimated)
Elevation: 959 ft. / 292 m (estimated)
Variation: 02W (1985)
From city: 2 miles SE of LEBANON, IN
Time zone: UTC -5 (UTC -4 during Daylight Saving Time)
Zip code: 46052

Airport Operations

Airport use: Open to the public
Activation date: 09/1963
Control tower: no
ARTCC: INDIANAPOLIS CENTER
FSS: TERRE HAUTE FLIGHT SERVICE STATION
NOTAMs facility: HUF (NOTAM-D service available)
Attendance: IRREGULAR
Pattern altitude: 1900 ft. MSL
Wind indicator: lighted
Segmented circle: no
Lights: ACTVT LIRL RY 18/36 - 122.8
Beacon: white-green (lighted land airport)
Operates sunset to sunrise.

Airport Communications

CTAF/UNICOM: 122.8
WX AWOS-3PT at TYQ (9 nm E): 120.725 (317-769-3154)
WX ASOS at EYE (13 nm SE): 121.575 (317-329-1754)
WX AWOS-3P at 2R2 (16 nm S): 118.025 (317-718-4872)
WX AWOS-3 at FKR (17 nm N): 124.325 (765-654-0328)
WX ASOS at IND (19 nm S): PHONE 317-241-0348
WX AWOS-3 at UMP (19 nm E): 119.375 (317-842-3911)
WX AWOS-3 at 8A4 (20 nm SE): 118.250 (317-955-3160)

Nearby radio navigation aids

VOR radial/distance  VOR name  Freq  Var
VHPr343/12.0BRICKYARD VORTAC116.3001E
OKKr214/35.8KOKOMO VORTAC113.5005W
SHBr307/36.2SHELBYVILLE VOR/DME112.0001E

 
NDB name  Hdg/Dist  Freq  Var  ID
METROPOLITAN286/18.433803WUMP ..- -- .--.
CRAWFORDSVILLE090/21.938804WCFJ -.-. ..-. .---

Airport Services

Parking: hangars and tiedowns
Airframe service: NONE
Powerplant service: NONE
Bottled oxygen: NONE
Bulk oxygen: NONE

Runway Information

Runway 18/36

Dimensions: 3600 x 30 ft. / 1097 x 9 m
Surface: concrete, in poor condition
LOOSE GRAVEL & CRACKS.
Weight bearing capacity: 
Single wheel: 10.5
Runway edge lights: non-standard
RWY 18/36 NSTD LIRL - LIGHTS 24' FROM RWY EDGE.
Gradient: S
RUNWAY 18  RUNWAY 36
Latitude: 40-00.828667N40-00.235833N
Longitude: 086-26.424833W086-26.424833W
Elevation: 950.0 ft.959.0 ft.
Traffic pattern: leftleft
Displaced threshold: no200 ft.
Markings: basic, in fair conditionbasic, in fair condition
Runway end identifier lights: nono
Obstructions: 10 ft. crops, 201 ft. from runway
RWY 18 -15 FT CREEK 37 FT FM RY END ON CNTRLN; 5 FT BRUSH 80 FT FM RY END.
65 ft. tree, 610 ft. from runway, 110 ft. left of centerline, 6:1 slope to clear
RWY 36 15 FT ROAD, 110 FT FR RWY END.

Airport Ownership and Management from official FAA records

Ownership: Privately-owned
Owner: DONALD A. GEISLER AND KAY GEISLER
1600 E 250 S
LEBANON, IN 46052
Phone 765-482-0940
Manager: RAY RICE
1600 E 250 S
LEBANON, IN 46052
Phone 317-281-6791

Airport Operational Statistics

Aircraft based on the field: 37
Single engine airplanes: 34
Multi engine airplanes: 2
Ultralights: 1
    
Aircraft operations: avg 72/week *
57% local general aviation
43% transient general aviation
* for 12-month period ending 31 December 2016

Additional Remarks

-3 FT DRAINAGE DITCH WITHIN PRIM SFC FM 50 FT E & 50 FT W OF CL.
ULTRALGTS ON & INVOF ARPT.
FOR CD CTC INDIANAPOLIS APCH AT 317-227-5743.

Instrument Procedures

There are no published instrument procedures at 6I4.

Some nearby airports with instrument procedures:

KTYQ - Indianapolis Executive Airport (9 nm E)
KEYE - Eagle Creek Airpark (13 nm SE)
5I4 - Sheridan Airport (15 nm NE)
2R2 - Hendricks County Airport-Gordon Graham Field (16 nm S)
KFKR - Frankfort Municipal Airport (17 nm N)
KIND - Indianapolis International Airport (19 nm S)
KUMP - Indianapolis Metropolitan Airport (19 nm E)
8A4 - Indianapolis Downtown Heliport (20 nm SE)
 
Loc | Ops | Rwys | IFR | FBO | Links
Com | Nav | Svcs | Stats | Notes
Area around 6I4 (Boone County Airport)
 
Road maps at: MapQuest Bing Google
 
Aerial photo
WARNING: Photo may not be current or correct
Aerial photo of 6I4 (Boone County Airport)
Do you have a better or more recent aerial photo of Boone County Airport that you would like to share? If so, please send us your photo.

 
Sectional chart

 
Airport distance calculator
Flying to Boone County Airport? Find the distance to fly.

From to 6I4

Sunrise and sunset
Times for 14-Nov-2019
 Local
(UTC-5)
 Zulu
(UTC)
Morning civil twilight07:0212:02
Sunrise07:3112:31
Sunset17:3022:30
Evening civil twilight17:5922:59

Current date and time
Zulu (UTC)  14-Nov-2019 09:43:11
Local (UTC-5)  14-Nov-2019 04:43:11
 
METAR
KTYQ 
9nm E 
140915Z AUTO 21005KT 10SM BKN070 OVC090 M02/M06 A3013 RMK AO2 T10201060
KEYE 
12nm SE 
140853Z AUTO 21005KT 10SM BKN075 OVC100 M01/M07 A3012 RMK AO2 SLP208 T10111067 58004
KFKR 
17nm N 
140915Z AUTO 24004KT 10SM OVC070 00/M06 A3013 RMK AO2 T10011061
KIND 
19nm SE 
140854Z 21007KT 10SM SCT080 OVC100 M01/M06 A3013 RMK AO2 SLP211 T10111061 56004
TAF
KIND 
19nm SE 
140809Z 1408/1512 20065KT P6SM OVC100 FM142000 24008KT P6SM SCT250 FM142300 27006KT P6SM SCT250
NOTAMs
Click for the latest NOTAMs
NOTAMs are issued by the DoD/FAA and will open in a separate window not controlled by AirNav.

 

 
 

Would you like to see your business listed on this page?

 If your business provides an interesting product or service to pilots, flight crews, aircraft, or users of the Boone County Airport, you should consider listing it here.  To start the listing process, click on the button below
 
Add a business
 

Other Pages about Boone County Airport

Update a link
 
Copyright © AirNav, LLC. All rights reserved. Privacy Policy  Contact